TimeMDT,TemperatureF,Dew PointF,Humidity,Sea Level PressureIn,VisibilityMPH,Wind Direction,Wind SpeedMPH,Gust SpeedMPH,PrecipitationIn,Events,Conditions,WindDirDegrees,DateUTC
12:56 AM,48.9,35.1,59,29.60,10.0,East,4.6,-,N/A,,Clear,100,2013-09-23 06:56:00
1:56 AM,48.9,36.0,61,29.60,10.0,North,-9999.0,-,N/A,,Clear,0,2013-09-23 07:56:00
2:56 AM,51.1,36.0,56,29.59,10.0,SW,11.5,-,N/A,,Clear,220,2013-09-23 08:56:00
3:56 AM,50.0,37.0,61,29.60,10.0,WSW,19.6,27.6,N/A,,Clear,240,2013-09-23 09:56:00
4:56 AM,48.9,37.0,64,29.61,10.0,WSW,19.6,28.8,N/A,,Clear,240,2013-09-23 10:56:00
5:56 AM,48.9,36.0,61,29.64,10.0,WSW,20.7,25.3,N/A,,Clear,240,2013-09-23 11:56:00
6:56 AM,46.9,36.0,66,29.67,10.0,WSW,17.3,24.2,N/A,,Clear,250,2013-09-23 12:56:00
7:56 AM,46.0,37.0,71,29.69,10.0,WSW,18.4,-,N/A,,Clear,240,2013-09-23 13:56:00
8:56 AM,51.1,36.0,56,29.70,10.0,WSW,27.6,34.5,N/A,,Clear,240,2013-09-23 14:56:00
9:56 AM,54.0,35.1,49,29.72,10.0,WSW,25.3,38.0,N/A,,Clear,240,2013-09-23 15:56:00
10:56 AM,57.0,33.1,40,29.73,10.0,WSW,24.2,38.0,N/A,,Clear,250,2013-09-23 16:56:00
11:56 AM,59.0,32.0,36,29.73,10.0,West,24.2,36.8,N/A,,Clear,260,2013-09-23 17:56:00
12:56 PM,60.1,32.0,35,29.71,10.0,WSW,28.8,41.4,N/A,,Clear,240,2013-09-23 18:56:00
1:56 PM,59.0,33.1,38,29.71,10.0,WSW,38.0,52.9,N/A,,Clear,240,2013-09-23 19:56:00
2:56 PM,55.0,33.1,43,29.73,10.0,WSW,40.3,52.9,N/A,,Clear,250,2013-09-23 20:56:00
3:56 PM,55.9,34.0,44,29.77,10.0,SW,31.1,40.3,N/A,,Clear,230,2013-09-23 21:56:00
4:56 PM,57.9,33.1,39,29.77,10.0,WSW,31.1,38.0,N/A,,Clear,240,2013-09-23 22:56:00
5:56 PM,57.0,33.1,40,29.79,10.0,WSW,25.3,35.7,N/A,,Clear,250,2013-09-23 23:56:00
6:56 PM,52.0,34.0,50,29.81,10.0,WSW,25.3,34.5,N/A,,Clear,250,2013-09-24 00:56:00
7:56 PM,51.1,32.0,48,29.84,10.0,WSW,16.1,23.0,N/A,,Clear,240,2013-09-24 01:56:00
8:56 PM,48.9,34.0,56,29.84,10.0,WSW,18.4,-,N/A,,Clear,250,2013-09-24 02:56:00
9:56 PM,48.9,35.1,59,29.84,10.0,WSW,18.4,-,N/A,,Clear,240,2013-09-24 03:56:00
10:56 PM,50.0,33.1,52,29.83,10.0,WSW,21.9,-,N/A,,Clear,240,2013-09-24 04:56:00
11:56 PM,50.0,34.0,54,29.83,10.0,WSW,19.6,32.2,N/A,,Clear,240,2013-09-24 05:56:00